Time,TemperatureF,DewpointF,PressureIn,WindDirection,WindDirectionDegrees,WindSpeedMPH,WindSpeedGustMPH,Humidity,HourlyPrecipIn,Conditions,Clouds,dailyrainin,SoftwareType,DateUTC
2013-01-23 00:00:00,13.7,3.0,30.44,SSW,207,0.0,3.0,63,0.00,,,0.00,weatherlink.com 1.10,2013-01-23 06:00:00,
2013-01-23 00:15:00,13.9,3.0,30.43,SW,232,0.0,2.0,61,0.00,,,0.00,weatherlink.com 1.10,2013-01-23 06:15:00,
2013-01-23 00:31:00,14.1,3.0,30.43,WSW,248,0.0,2.0,62,0.00,,,0.00,weatherlink.com 1.10,2013-01-23 06:31:00,
2013-01-23 00:46:00,14.2,3.0,30.43,WSW,258,1.0,3.0,61,0.00,,,0.00,weatherlink.com 1.10,2013-01-23 06:46:00,
2013-01-23 01:01:00,14.4,3.0,30.42,SSW,200,1.0,3.0,61,0.00,,,0.00,weatherlink.com 1.10,2013-01-23 07:01:00,
2013-01-23 01:16:00,14.6,3.0,30.42,SSW,203,0.0,3.0,61,0.00,,,0.00,weatherlink.com 1.10,2013-01-23 07:16:00,
2013-01-23 01:31:00,14.6,3.0,30.41,SW,221,0.0,3.0,60,0.00,,,0.00,weatherlink.com 1.10,2013-01-23 07:31:00,
2013-01-23 01:46:00,14.7,2.0,30.42,SW,235,1.0,3.0,58,0.00,,,0.00,weatherlink.com 1.10,2013-01-23 07:46:00,
2013-01-23 02:01:00,14.9,3.0,30.43,SSW,213,0.0,5.0,60,0.00,,,0.00,weatherlink.com 1.10,2013-01-23 08:01:00,
2013-01-23 02:16:00,14.8,3.0,30.41,South,187,2.0,3.0,60,0.00,,,0.00,weatherlink.com 1.10,2013-01-23 08:16:00,
2013-01-23 02:46:00,15.0,3.0,30.40,SSW,192,0.0,1.0,60,0.00,,,0.00,weatherlink.com 1.10,2013-01-23 08:46:00,
2013-01-23 03:01:00,15.1,3.0,30.40,SSW,192,0.0,0.0,58,0.00,,,0.00,weatherlink.com 1.10,2013-01-23 09:01:00,
2013-01-23 03:31:00,15.3,4.0,30.39,SSW,197,1.0,3.0,61,0.00,,,0.00,weatherlink.com 1.10,2013-01-23 09:31:00,
2013-01-23 03:46:00,15.4,4.0,30.39,South,186,3.0,3.0,61,0.00,,,0.00,weatherlink.com 1.10,2013-01-23 09:46:00,
2013-01-23 04:01:00,15.6,4.0,30.39,SSE,160,1.0,3.0,61,0.00,,,0.00,weatherlink.com 1.10,2013-01-23 10:01:00,
2013-01-23 04:16:00,15.7,5.0,30.38,South,170,4.0,4.0,63,0.00,,,0.00,weatherlink.com 1.10,2013-01-23 10:16:00,
2013-01-23 04:46:00,15.9,7.0,30.37,SE,140,4.0,6.0,68,0.00,,,0.00,weatherlink.com 1.10,2013-01-23 10:46:00,
2013-01-23 05:01:00,15.7,5.0,30.37,South,191,3.0,5.0,63,0.00,,,0.00,weatherlink.com 1.10,2013-01-23 11:01:00,
2013-01-23 05:31:00,15.6,5.0,30.36,South,174,1.0,4.0,64,0.00,,,0.00,weatherlink.com 1.10,2013-01-23 11:31:00,
2013-01-23 05:46:00,15.4,6.0,30.36,SSE,159,3.0,5.0,65,0.00,,,0.00,weatherlink.com 1.10,2013-01-23 11:46:00,
2013-01-23 06:01:00,15.0,6.0,30.36,South,175,2.0,4.0,68,0.00,,,0.00,weatherlink.com 1.10,2013-01-23 12:01:00,
2013-01-23 06:16:00,14.4,5.0,30.36,South,178,0.0,2.0,67,0.00,,,0.00,weatherlink.com 1.10,2013-01-23 12:16:00,
2013-01-23 06:32:00,13.8,6.0,30.36,South,178,0.0,1.0,70,0.00,,,0.00,weatherlink.com 1.10,2013-01-23 12:32:00,
2013-01-23 06:47:00,13.1,5.0,30.37,South,178,0.0,0.0,71,0.00,,,0.00,weatherlink.com 1.10,2013-01-23 12:47:00,
2013-01-23 07:02:00,12.8,6.0,30.36,South,171,0.0,2.0,73,0.00,,,0.00,weatherlink.com 1.10,2013-01-23 13:02:00,
2013-01-23 07:17:00,12.8,6.0,30.35,South,171,1.0,2.0,73,0.00,,,0.00,weatherlink.com 1.10,2013-01-23 13:17:00,
2013-01-23 07:32:00,13.1,6.0,30.34,SSE,164,3.0,4.0,74,0.00,,,0.00,weatherlink.com 1.10,2013-01-23 13:32:00,
2013-01-23 07:47:00,13.6,8.0,30.34,SSE,166,4.0,5.0,77,0.00,,,0.00,weatherlink.com 1.10,2013-01-23 13:47:00,
2013-01-23 08:02:00,14.3,8.0,30.33,SSE,148,1.0,5.0,75,0.00,,,0.00,weatherlink.com 1.10,2013-01-23 14:02:00,
2013-01-23 08:17:00,15.6,9.0,30.34,SSE,153,6.0,7.0,74,0.00,,,0.00,weatherlink.com 1.10,2013-01-23 14:17:00,
2013-01-23 08:32:00,16.8,10.0,30.34,SSE,159,6.0,10.0,74,0.00,,,0.00,weatherlink.com 1.10,2013-01-23 14:32:00,
2013-01-23 08:47:00,17.4,10.0,30.34,SSW,211,5.0,8.0,72,0.00,,,0.00,weatherlink.com 1.10,2013-01-23 14:47:00,
2013-01-23 09:02:00,18.1,10.0,30.34,South,176,4.0,10.0,70,0.00,,,0.00,weatherlink.com 1.10,2013-01-23 15:02:00,
2013-01-23 09:17:00,19.3,10.0,30.33,South,174,8.0,11.0,66,0.00,,,0.00,weatherlink.com 1.10,2013-01-23 15:17:00,
2013-01-23 09:32:00,20.0,11.0,30.32,SSE,156,7.0,12.0,67,0.00,,,0.00,weatherlink.com 1.10,2013-01-23 15:32:00,
2013-01-23 09:47:00,20.9,10.0,30.32,SSW,197,7.0,11.0,62,0.00,,,0.00,weatherlink.com 1.10,2013-01-23 15:47:00,
2013-01-23 10:02:00,21.8,11.0,30.31,South,188,2.0,11.0,62,0.00,,,0.00,weatherlink.com 1.10,2013-01-23 16:02:00,
2013-01-23 10:17:00,22.7,11.0,30.31,South,186,5.0,10.0,60,0.00,,,0.00,weatherlink.com 1.10,2013-01-23 16:17:00,
2013-01-23 10:32:00,23.4,11.0,30.31,SSE,153,5.0,11.0,60,0.00,,,0.00,weatherlink.com 1.10,2013-01-23 16:32:00,
2013-01-23 10:47:00,24.9,11.0,30.31,SSE,152,3.0,7.0,57,0.00,,,0.00,weatherlink.com 1.10,2013-01-23 16:47:00,
2013-01-23 11:02:00,25.7,12.0,30.30,SSW,202,3.0,6.0,57,0.00,,,0.00,weatherlink.com 1.10,2013-01-23 17:02:00,
2013-01-23 11:17:00,26.5,12.0,30.28,SSE,157,5.0,9.0,55,0.00,,,0.00,weatherlink.com 1.10,2013-01-23 17:17:00,
2013-01-23 11:32:00,27.3,13.0,30.28,South,179,4.0,7.0,54,0.00,,,0.00,weatherlink.com 1.10,2013-01-23 17:32:00,
2013-01-23 11:47:00,28.2,13.0,30.27,SSE,163,3.0,7.0,53,0.00,,,0.00,weatherlink.com 1.10,2013-01-23 17:47:00,
2013-01-23 12:03:00,29.2,13.0,30.25,SSE,167,7.0,9.0,52,0.00,,,0.00,weatherlink.com 1.10,2013-01-23 18:03:00,
2013-01-23 12:18:00,29.9,13.0,30.25,SSW,192,6.0,10.0,50,0.00,,,0.00,weatherlink.com 1.10,2013-01-23 18:18:00,
2013-01-23 12:33:00,30.8,14.0,30.23,WSW,251,9.0,11.0,49,0.00,,,0.00,weatherlink.com 1.10,2013-01-23 18:33:00,
2013-01-23 12:48:00,31.3,14.0,30.22,SW,225,6.0,11.0,49,0.00,,,0.00,weatherlink.com 1.10,2013-01-23 18:48:00,
2013-01-23 13:03:00,32.3,14.0,30.22,WSW,255,3.0,12.0,48,0.00,,,0.00,weatherlink.com 1.10,2013-01-23 19:03:00,
2013-01-23 13:18:00,32.7,15.0,30.20,WSW,240,7.0,12.0,48,0.00,,,0.00,weatherlink.com 1.10,2013-01-23 19:18:00,
2013-01-23 13:33:00,33.3,15.0,30.20,West,272,9.0,12.0,48,0.00,,,0.00,weatherlink.com 1.10,2013-01-23 19:33:00,
2013-01-23 13:48:00,33.9,15.0,30.20,SW,223,9.0,15.0,47,0.00,,,0.00,weatherlink.com 1.10,2013-01-23 19:48:00,
2013-01-23 14:03:00,34.8,16.0,30.20,West,274,7.0,12.0,47,0.00,,,0.00,weatherlink.com 1.10,2013-01-23 20:03:00,
2013-01-23 14:18:00,35.3,16.0,30.18,West,259,9.0,17.0,45,0.00,,,0.00,weatherlink.com 1.10,2013-01-23 20:18:00,
2013-01-23 14:33:00,35.8,17.0,30.19,WSW,247,14.0,14.0,46,0.00,,,0.00,weatherlink.com 1.10,2013-01-23 20:33:00,
2013-01-23 14:48:00,35.5,17.0,30.19,West,279,11.0,15.0,48,0.00,,,0.00,weatherlink.com 1.10,2013-01-23 20:48:00,
2013-01-23 15:03:00,35.3,17.0,30.19,West,274,9.0,16.0,48,0.00,,,0.00,weatherlink.com 1.10,2013-01-23 21:03:00,
2013-01-23 15:18:00,35.0,17.0,30.19,WNW,302,7.0,17.0,49,0.00,,,0.00,weatherlink.com 1.10,2013-01-23 21:18:00,
2013-01-23 15:33:00,34.8,18.0,30.19,West,279,11.0,13.0,51,0.00,,,0.00,weatherlink.com 1.10,2013-01-23 21:33:00,
2013-01-23 15:48:00,34.7,18.0,30.20,NW,313,5.0,15.0,51,0.00,,,0.00,weatherlink.com 1.10,2013-01-23 21:48:00,
2013-01-23 16:03:00,34.1,18.0,30.20,WNW,297,10.0,17.0,53,0.00,,,0.00,weatherlink.com 1.10,2013-01-23 22:03:00,
2013-01-23 16:18:00,34.0,18.0,30.20,WNW,292,9.0,13.0,53,0.00,,,0.00,weatherlink.com 1.10,2013-01-23 22:18:00,
2013-01-23 16:33:00,33.8,19.0,30.20,West,281,4.0,16.0,54,0.00,,,0.00,weatherlink.com 1.10,2013-01-23 22:33:00,
2013-01-23 16:48:00,33.2,19.0,30.20,NNW,327,6.0,12.0,56,0.00,,,0.00,weatherlink.com 1.10,2013-01-23 22:48:00,
2013-01-23 17:03:00,32.6,19.0,30.21,WNW,301,9.0,12.0,57,0.00,,,0.00,weatherlink.com 1.10,2013-01-23 23:03:00,
2013-01-23 17:18:00,31.8,19.0,30.22,NW,313,8.0,13.0,59,0.00,,,0.00,weatherlink.com 1.10,2013-01-23 23:18:00,
2013-01-23 17:33:00,31.0,19.0,30.22,NW,307,5.0,17.0,61,0.00,,,0.00,weatherlink.com 1.10,2013-01-23 23:33:00,
2013-01-23 17:48:00,30.3,19.0,30.23,NW,310,12.0,14.0,63,0.00,,,0.00,weatherlink.com 1.10,2013-01-23 23:48:00,
2013-01-23 18:03:00,29.8,19.0,30.25,West,271,10.0,16.0,64,0.00,,,0.00,weatherlink.com 1.10,2013-01-24 00:03:00,
2013-01-23 18:18:00,28.8,19.0,30.26,NNW,331,6.0,12.0,67,0.00,,,0.00,weatherlink.com 1.10,2013-01-24 00:18:00,
2013-01-23 18:33:00,28.2,18.0,30.27,NW,315,8.0,15.0,67,0.00,,,0.00,weatherlink.com 1.10,2013-01-24 00:33:00,
2013-01-23 18:48:00,27.5,18.0,30.28,NW,318,6.0,16.0,68,0.00,,,0.00,weatherlink.com 1.10,2013-01-24 00:48:00,
2013-01-23 19:03:00,27.0,18.0,30.28,WNW,290,4.0,13.0,69,0.00,,,0.00,weatherlink.com 1.10,2013-01-24 01:03:00,
2013-01-23 19:18:00,26.7,17.0,30.28,NNW,327,9.0,18.0,67,0.00,,,0.00,weatherlink.com 1.10,2013-01-24 01:18:00,
2013-01-23 19:33:00,26.5,17.0,30.29,NW,309,8.0,17.0,68,0.00,,,0.00,weatherlink.com 1.10,2013-01-24 01:33:00,
2013-01-23 19:48:00,26.3,17.0,30.30,NW,311,9.0,15.0,68,0.00,,,0.00,weatherlink.com 1.10,2013-01-24 01:48:00,
2013-01-23 20:03:00,26.0,17.0,30.31,NNW,336,10.0,16.0,69,0.00,,,0.00,weatherlink.com 1.10,2013-01-24 02:03:00,
2013-01-23 20:33:00,24.9,14.0,30.32,North,355,9.0,18.0,64,0.00,,,0.00,weatherlink.com 1.10,2013-01-24 02:33:00,
2013-01-23 20:48:00,24.2,14.0,30.32,NW,325,9.0,16.0,64,0.00,,,0.00,weatherlink.com 1.10,2013-01-24 02:48:00,
2013-01-23 21:03:00,23.6,13.0,30.33,WNW,298,13.0,19.0,65,0.00,,,0.00,weatherlink.com 1.10,2013-01-24 03:03:00,
2013-01-23 21:18:00,22.9,12.0,30.34,NW,306,16.0,23.0,64,0.00,,,0.00,weatherlink.com 1.10,2013-01-24 03:18:00,
2013-01-23 21:33:00,22.2,11.0,30.35,NW,321,6.0,22.0,62,0.00,,,0.00,weatherlink.com 1.10,2013-01-24 03:33:00,
2013-01-23 21:48:00,21.4,11.0,30.36,NNW,346,10.0,19.0,63,0.00,,,0.00,weatherlink.com 1.10,2013-01-24 03:48:00,
2013-01-23 22:03:00,20.8,10.0,30.37,NNW,340,7.0,18.0,64,0.00,,,0.00,weatherlink.com 1.10,2013-01-24 04:03:00,
2013-01-23 22:18:00,20.2,9.0,30.39,North,355,8.0,21.0,62,0.00,,,0.00,weatherlink.com 1.10,2013-01-24 04:18:00,
2013-01-23 22:33:00,19.4,7.0,30.39,NNW,344,10.0,21.0,60,0.00,,,0.00,weatherlink.com 1.10,2013-01-24 04:33:00,
2013-01-23 22:48:00,18.8,7.0,30.40,NW,312,12.0,23.0,61,0.00,,,0.00,weatherlink.com 1.10,2013-01-24 04:48:00,
2013-01-23 23:03:00,17.8,6.0,30.42,NNW,333,14.0,22.0,61,0.00,,,0.00,weatherlink.com 1.10,2013-01-24 05:03:00,
2013-01-23 23:18:00,16.9,6.0,30.43,North,5,5.0,20.0,63,0.00,,,0.00,weatherlink.com 1.10,2013-01-24 05:18:00,
2013-01-23 23:33:00,15.7,5.0,30.45,North,360,13.0,18.0,64,0.00,,,0.00,weatherlink.com 1.10,2013-01-24 05:33:00,
2013-01-23 23:48:00,15.2,6.0,30.45,NNE,15,13.0,22.0,66,0.00,,,0.00,weatherlink.com 1.10,2013-01-24 05:48:00,